Regional Weather Roundup
Issued by NWS Spokane, WA

Home | Current Version | Previous Version | Text Only | Print | Product List | Glossary On
Versions: 1 2 3 4 5 6 7 8 9 10 11 12 13 14 15 16 17 18 19 20 21 22 23 24 25 26 27 28 29 30 31 32 33 34 35 36 37 38 39 40 41 42 43 44 45 46 47 48 49 50
000
NZUS01 KOTX 292110
RWROTX
EASTERN WASHINGTON/NORTHERN IDAHO ROUNDUP
NATIONAL WEATHER SERVICE, SPOKANE WA
200 PM PDT SUN MAY 29 2016

Note: "fair" indicated few or no clouds below 12,000 feet with no
significant weather and/or obstructions to visibility.

...NORTHEAST WASHINGTON AND NORTHERN IDAHO PANHANDLE...

CITY           SKY/WX    TMP DP  RH WIND       PRES   REMARKS
SPOKANE INTL   MOSUNNY   69  35  28 SW13G23   29.97S
SPOKANE DOWNTO MOSUNNY   72  38  29 SW17G25   29.97F
COEUR D ALENE  MOSUNNY   70  39  32 S16G24    29.95S
DEER PARK      MOSUNNY   69  37  30 SW17G30   29.96F
SANDPOINT      MOSUNNY   64  39  39 SW8       29.94F
BONNERS FERRY  FAIR      68  41  37 S10G17    29.92F

...SOUTHEAST WASHINGTON AND SOUTHERN IDAHO PANHANDLE...

CITY           SKY/WX    TMP DP  RH WIND       PRES   REMARKS
WALLA WALLA    SUNNY     72  45  37 SW10G24   30.00F
PULLMAN/MOSCOW MOSUNNY   69  44  40 W18       30.03S
LEWISTON       PTSUNNY   73  45  36 CALM      29.97F
LOWELL           N/A     75  44  33 VRB7      29.92F

...COLUMBIA BASIN...

CITY           SKY/WX    TMP DP  RH WIND       PRES   REMARKS
EPHRATA        MOSUNNY   74  35  24 W15       29.96S
MOSES LAKE     SUNNY     75  32  20 W15G23    29.97S
TRI CITIES     SUNNY     77  39  25 CALM      29.96F
HERMISTON      SUNNY     78  41  26 SW17G25   29.98F
PENDLETON      MOSUNNY   75  41  29 W20G28    30.00F

...EAST SLOPES CASCADES...

CITY           SKY/WX    TMP DP  RH WIND       PRES   REMARKS
THE DALLES     SUNNY     71  42  35 NW21G31   30.06S
YAKIMA         MOSUNNY   76  39  26 VRB6      29.99S
ELLENSBURG     SUNNY     66  38  35 NW28G39   30.03R
STAMPEDE PASS  PTSUNNY   46  38  73 VRB3      30.12R
WENATCHEE      MOSUNNY   71  35  26 NW8       29.97R
OMAK           PTSUNNY   72  32  23 S9        29.92F

...SOUTHERN BRITISH COLUMBIA...

CITY           SKY/WX    TMP DP  RH WIND       PRES   REMARKS
PENTICTON      PTSUNNY   55  50  82 NW3       30.04S
CASTLEGAR      PTSUNNY   68  41  37 SW9G18    29.89S
CRANBROOK      LGT RAIN  55  46  71 N6        29.95R

...WESTERN MONTANA...

CITY           SKY/WX    TMP DP  RH WIND       PRES   REMARKS
MISSOULA       PTSUNNY   68  41  37 W3        30.00F

...NEIGHBORING CITIES...

CITY           SKY/WX    TMP DP  RH WIND       PRES   REMARKS
SEATTLE        PTSUNNY   60  47  61 NE15      30.18R
CALGARY        PTSUNNY   61  36  39 SE16      29.86R



USA.gov is the U.S. government's official web portal to all federal, state and local government web resources and services.